ONEWEB-0017, 45132

Orbit data source: Space-Track

ONEWEB-0017, 45132 is a payload satellite owned by One Web (UK) in LEO that was launched on Thu, 06 Feb 2020 UTC via a SOYUZ-2-1B launch vehicle from the Tyuratam Missile And Space Complex (TTMTR). Payload-class satellites include a variety of spacecraft equipped with specific instruments for various scientific and technological missions. These include communications satellites like Starlink; space stations such as the ISS; scientific satellites like the Hubble; Earth observation satellites from companies like Planet Labs, Umbra, and HawkEye 360; GPS; miniature CubeSats for education and research; and military/defense satellites.

Loading next visibility...
Identifier
45132, 2020-008B
Orbit
LEO
Country
Flag of UKUK
Related business
Manufacturer
One Web
Mission
Operational Commercial Communications
Bus & Motor
ARROW, Unknown motor
Mass
148 kg wet, ~140 kg dry
Launch date (UTC)
2020-02-06 (6 years ago)
Launch vehicle
SOYUZ-2-1B
Launch site
Tyuratam Missile And Space Complex (TTMTR)
Object type
Payload
Rocket body
Debris
Shape & HBR
Trap Box + 2 Pan, 6.7 m
Radar Cross Section
3.464 m², Large (>1 m²)

Expand to show TLE details & history
Last TLE update: 1 day ago

TLE from 1 day ago
0 ONEWEB-0017
1 45132U 20008B   25301.40743246 -.00000084  00000-0 -27770-3 0  9996
2 45132  87.8767  82.4798 0001835  98.9418 261.1917 13.10369621277593
Epoch: 2025-10-28T09:46Z
TLE epoch observation values (Epoch: 2025-10-28T09:46:42.164Z)
Latitude
-0.00004°
Longitude
-101.19125°
Altitude
1,224.831 km
Speed
7.242 km/s
True Right ascension
05h 29m 55s
True Declination
0° 00' 00"
Sunlit
Object was in full shadow at epoch
Visualization orbit readout
Latitude
Unknown
Longitude
Unknown
Altitude
Unknown
Speed
Unknown
Apparent Right ascension
Unknown
Apparent Declination
Unknown
Sunlit
N/A
Visualization observer readout
Local Sidereal Time
07:26:20
Azimuth
Unknown
Elevation
Unknown
Doppler factor
Unknown
Orbital elements
Apogee altitude
1,220.243 km
Perigee altitude
1,217.455 km
Semi-major axis
7,596.986 km
Eccentricity
0.00018
Inclination
87.8767°
RAAN
82.4798°
Arg. of periapsis
98.9418°
True anomaly
261.17092°
Mean anomaly
261.1917°
Eccentric anomaly
261.18131°
Mean motion
3.27779 °/min
Orbital period
109.83 mins
BSTAR
-0.0002777
Loading maneuver chart data...
Computing Atmospheric mass density...
Loading historical data...
Loading historical data...
Loading historical data...
Loading historical data...
Loading historical data...
Loading historical data...
Loading historical data...

Documentation

Showing up to 5 results
|